Home > Weather > Kongsvinger > Past weeks

Flag for Norway Past Weather in Kongsvinger, Norway — Yesterday and Last 2 Weeks

Now
52 °F

Passing clouds.


Feels Like: 49 °F
Forecast: 48 / 61 °F
Wind: 8 mph from South

Location: Oslo Gardermoen Airport

Current Time: Jul 2, 2016 at 2:31:18 AM

Latest Report: Jul 2, 2016 at 1:50 AM


Visibility: N/A

Pressure: 29.68 "Hg

Humidity: 88%

Dew Point: 48 °F

Location of KongsvingerLocation

Past Weather in Kongsvinger — Graph

°F

Kongsvinger Temperature Yesterday

Maximum temperature yesterday: 59 °F (at 11:50 AM)
Minimum temperature yesterday: 52 °F (at 2:20 AM)
Average temperature yesterday: 55 °F

High & Low Weather Summary for the Past Weeks

 TemperatureHumidityPressure
High75 °F (Jun 25, 3:20 PM)94% (Jun 17, 8:20 PM)30.15 "Hg (Jun 17, 8:20 PM)
Low48 °F (Jun 19, 3:50 AM)33% (Jun 21, 5:50 PM)29.56 "Hg (Jun 17, 12:20 AM)
Average59 °F72%29.83 "Hg
* Reported Jun 17 12:20 AM — Jul 2 12:50 AM, Kongsvinger, Weather by CustomWeather, © 2016

Note: Actual official high and low records may vary slightly from our data, if they occured in-between our weather recording intervals... More about our weather records

Advertising

Kongsvinger Weather History for the Previous 24 Hours

Scroll right to see more
 ConditionsComfort  
Time TempWeatherWind HumidityBarometerVisibility
12:50 AM
Sat, Jul 2
54 °FPartly cloudy.9 mph88%29.68 "HgN/A
12:20 AM54 °FPassing clouds.12 mph82%29.68 "HgN/A
11:50 PM
Fri, Jul 1
54 °FPartly cloudy.14 mph88%29.65 "HgN/A
11:20 PM55 °FBroken clouds.14 mph82%29.65 "HgN/A
10:50 PM55 °FBroken clouds.14 mph88%29.65 "HgN/A
10:20 PM55 °FBroken clouds.13 mph88%29.65 "HgN/A
9:50 PM55 °FBroken clouds.10 mph88%29.65 "HgN/A
9:20 PM55 °FBroken clouds.10 mph94%29.65 "HgN/A
8:50 PM55 °FBroken clouds.9 mph94%29.65 "HgN/A
8:20 PM54 °FRain. Broken clouds.7 mph94%29.65 "HgN/A
7:50 PM54 °FLight rain. Broken clouds.8 mph94%29.65 "HgN/A
7:20 PM54 °FRain. Fog.5 mph94%29.65 "Hg2 mi
6:50 PM54 °FRain. Fog.2 mph88%29.65 "Hg3 mi
6:20 PM54 °FRain. Fog.8 mph88%29.65 "Hg2 mi
5:50 PM55 °FRain. More clouds than sun.13 mph82%29.65 "HgN/A
5:20 PM55 °FPartly sunny.14 mph82%29.65 "HgN/A
4:50 PM57 °FBroken clouds.8 mph88%29.65 "HgN/A
4:20 PM55 °FRain. Broken clouds.10 mph88%29.68 "HgN/A
3:50 PM59 °FLight rain. Broken clouds.9 mph82%29.68 "HgN/A
3:20 PM57 °FLight rain. Broken clouds.9 mph77%29.68 "HgN/A
2:50 PM57 °FLight rain. Broken clouds.12 mph82%29.68 "HgN/A
2:20 PM55 °FBroken clouds.12 mph77%29.68 "HgN/A
1:50 PM57 °FSprinkles. Broken clouds.9 mph77%29.68 "HgN/A
1:20 PM57 °FPartly sunny.10 mph72%29.68 "HgN/A
12:50 PM57 °FSprinkles. Partly sunny.9 mph77%29.68 "HgN/A
12:20 PM57 °FScattered showers. Partly sunny.9 mph72%29.68 "HgN/A
11:50 AM59 °FPartly sunny.9 mph63%29.71 "HgN/A
11:20 AM57 °FPassing clouds.12 mph67%29.71 "HgN/A
10:50 AM57 °FPartly sunny.9 mph67%29.71 "HgN/A
10:20 AM57 °FBroken clouds.12 mph72%29.71 "HgN/A
9:50 AM57 °FBroken clouds.10 mph77%29.74 "HgN/A
9:20 AM55 °FPartly sunny.9 mph82%29.74 "HgN/A
8:50 AM55 °FBroken clouds.8 mph82%29.74 "HgN/A
8:20 AM55 °FPartly sunny.8 mph82%29.74 "HgN/A
7:50 AM54 °FPartly sunny.9 mph88%29.74 "HgN/A
7:20 AM54 °FBroken clouds.7 mph88%29.74 "HgN/A
6:50 AM54 °FBroken clouds.7 mph88%29.74 "HgN/A
6:20 AM52 °FBroken clouds.7 mph88%29.74 "HgN/A
5:50 AM52 °FPartly sunny.6 mph88%29.74 "HgN/A
5:20 AM52 °FPartly sunny.7 mph94%29.74 "HgN/A
4:50 AM52 °FPassing clouds.7 mph94%29.74 "HgN/A
3:50 AM54 °FPartly cloudy.8 mph82%29.74 "HgN/A
3:20 AM54 °FScattered showers. Partly cloudy.9 mph82%29.74 "HgN/A
2:50 AM54 °FPassing clouds.8 mph82%29.74 "HgN/A
2:20 AM52 °FPartly cloudy.7 mph88%29.74 "HgN/A
Weather by CustomWeather, © 2016

See weather overviewHow to use our weather pages